DW1009 Weather Reports


Display with metric or nautical units.
time (UTC)temp
F
wind
direction
speed
MPH
gust
MPH
rain 1hr
in
rain 24hr
in
rain mn
in
humidity
%
barometer
mb
20260904232121 77 250 2.0 10.0 0.00 0.00 0.00 73 1010.3
20260904231121 77 261 10.0 10.0 0.00 0.00 0.00 73 1010.4
20260904230121 77 227 2.0 8.0 0.00 0.00 0.00 73 1010.5
20260904225121 77 184 2.0 8.0 0.00 0.00 0.00 73 1010.5
20260904224121 77 259 3.0 10.0 0.00 0.00 0.00 71 1010.5
20260904223120 78 277 2.0 9.0 0.00 0.00 0.00 68 1010.6
20260904221120 78 237 4.0 8.0 0.00 0.00 0.00 68 1010.6
20260904220120 78 235 5.0 9.0 0.00 0.00 0.00 68 1010.8
20260904215120 78 211 7.0 10.0 0.00 0.00 0.00 68 1010.7
20260904214120 78 190 2.0 10.0 0.00 0.00 0.00 69 1010.8
20260904213119 78 200 5.0 10.0 0.00 0.00 0.00 69 1010.8
20260904212119 77 206 5.0 9.0 0.00 0.00 0.00 70 1010.8
20260904211120 78 182 3.0 12.0 0.00 0.00 0.00 70 1010.8
20260904210119 78 148 2.0 11.0 0.00 0.00 0.00 69 1010.8
20260904205119 77 236 3.0 11.0 0.00 0.00 0.00 70 1010.9
20260904204119 77 257 8.0 11.0 0.00 0.00 0.00 69 1010.9
20260904202119 78 202 5.0 10.0 0.00 0.00 0.00 70 1011.0
20260904201118 77 211 2.0 10.0 0.00 0.00 0.00 69 1011.2
20260904195118 77 254 5.0 11.0 0.00 0.00 0.00 69 1011.2
20260904194118 77 261 3.0 12.0 0.00 0.00 0.00 71 1011.3
20260904193118 77 271 7.0 11.0 0.00 0.00 0.00 71 1011.3
20260904191118 78 150 5.0 11.0 0.00 0.00 0.00 71 1011.6
20260904185117 77 76 3.0 8.0 0.00 0.00 0.00 72 1011.8
20260904182117 76 253 3.0 7.0 0.00 0.00 0.00 73 1011.7
20260904181117 76 240 3.0 9.0 0.00 0.00 0.00 73 1011.7
20260904180118 75 203 1.0 9.0 0.00 0.00 0.00 75 1011.8
20260904174118 75 248 4.0 8.0 0.00 0.00 0.00 75 1011.8
20260904172117 75 219 3.0 6.0 0.00 0.00 0.00 73 1011.7
20260904171118 76 229 5.0 5.0 0.00 0.00 0.00 70 1011.7
20260904170118 76 193 2.0 4.0 0.00 0.00 0.00 69 1011.7
20260904165117 76 125 1.0 5.0 0.00 0.00 0.00 69 1011.5
20260904163117 73 217 2.0 5.0 0.00 0.00 0.00 74 1011.4
20260904162117 72 150 1.0 7.0 0.00 0.00 0.00 77 1011.2
20260904161117 72 200 0.0 5.0 0.00 0.00 0.00 78 1011.1
20260904160118 72 180 1.0 4.0 0.00 0.00 0.00 79 1011.1
20260904155117 72 216 1.0 4.0 0.00 0.00 0.00 82 1011.0
20260904154117 72 50 2.0 3.0 0.00 0.00 0.00 82 1011.0
20260904153117 71 196 1.0 4.0 0.00 0.00 0.00 83 1011.1
20260904152117 70 86 1.0 3.0 0.00 0.00 0.00 85 1011.0
20260904151117 70 135 1.0 4.0 0.00 0.00 0.00 85 1010.9
20260904150117 69 121 0.0 2.0 0.00 0.00 0.00 86 1010.9
20260904145117 68 47 2.0 2.0 0.00 0.00 0.00 87 1010.7
20260904143117 66 138 3.0 3.0 0.00 0.00 0.00 89 1010.5
20260904142117 66 107 1.0 3.0 0.00 0.00 0.00 90 1010.4
20260904141117 66 66 1.0 3.0 0.00 0.00 0.00 90 1010.4
20260904140117 66 94 0.0 4.0 0.00 0.00 0.00 90 1010.3
20260904135117 66 88 1.0 4.0 0.00 0.00 0.00 90 1010.2
20260904134117 65 111 1.0 3.0 0.00 0.00 0.00 91 1010.1
20260904133117 65 42 0.0 3.0 0.00 0.00 0.00 90 1010.1
20260904132117 65 49 0.0 2.0 0.00 0.00 0.00 91 1010.1
20260904131117 65 21 0.0 2.0 0.00 0.00 0.00 90 1010.1
20260904125117 65 40 0.0 2.0 0.00 0.00 0.00 90 1010.1
20260904123117 65 69 0.0 2.0 0.00 0.00 0.00 91 1010.0
20260904122117 65 65 0.0 2.0 0.00 0.00 0.00 91 1009.9
20260904121117 65 49 0.0 1.0 0.00 0.00 0.00 92 1009.8
20260904120117 64 32 0.0 1.0 0.00 0.00 0.00 93 1009.8
20260904115118 63 24 0.0 2.0 0.00 0.00 0.00 94 1009.9
20260904114117 63 116 0.0 2.0 0.00 0.00 0.00 94 1009.9
20260904112117 63 116 0.0 0.0 0.00 0.00 0.00 92 1009.8
20260904110117 64 116 0.0 0.0 0.00 0.00 0.00 92 1009.9
20260904105116 64 116 0.0 0.0 0.00 0.00 0.00 91 1010.0
20260904104116 64 116 0.0 0.0 0.00 0.00 0.00 91 1009.9
20260904103116 65 116 0.0 0.0 0.00 0.00 0.00 91 1009.9
20260904100116 66 116 0.0 2.0 0.00 0.00 0.00 90 1009.8
20260904095116 66 122 1.0 2.0 0.00 0.00 0.00 91 1009.8
20260904094116 66 211 0.0 2.0 0.00 0.00 0.00 91 1009.8
20260904093117 66 211 0.0 0.0 0.00 0.00 0.00 90 1009.8
20260904092116 66 211 0.0 2.0 0.00 0.00 0.00 90 1009.8
20260904090116 66 211 0.0 2.0 0.00 0.00 0.00 90 1009.9
20260904085116 67 211 0.0 1.0 0.00 0.00 0.00 89 1009.9
20260904084116 67 211 0.0 0.0 0.00 0.00 0.00 89 1009.9
20260904083116 67 211 0.0 2.0 0.00 0.00 0.00 89 1010.0
20260904082116 67 163 0.0 2.0 0.00 0.00 0.00 89 1010.1
20260904080116 68 220 2.0 3.0 0.00 0.00 0.00 89 1010.1
20260904075117 68 235 1.0 3.0 0.00 0.00 0.00 89 1010.1
20260904074116 68 184 0.0 3.0 0.00 0.00 0.00 88 1010.0
20260904073116 68 226 0.0 3.0 0.00 0.00 0.00 88 1010.1
20260904072116 68 219 0.0 3.0 0.00 0.00 0.00 87 1010.1
20260904071116 68 228 0.0 2.0 0.00 0.00 0.00 86 1010.1
20260904070116 68 274 1.0 3.0 0.00 0.00 0.00 86 1010.0
20260904065116 68 179 1.0 4.0 0.00 0.00 0.00 85 1010.1
20260904062116 68 247 1.0 2.0 0.00 0.00 0.00 85 1009.9
20260904061116 68 251 2.0 3.0 0.00 0.00 0.00 85 1009.9
20260904060116 68 213 1.0 4.0 0.00 0.00 0.00 85 1009.9
20260904055116 68 239 1.0 3.0 0.00 0.00 0.00 85 1009.9
20260904054116 68 254 1.0 3.0 0.00 0.00 0.00 85 1009.9
20260904050116 69 261 0.0 5.0 0.00 0.00 0.00 87 1010.1
20260904045116 69 115 0.0 3.0 0.00 0.00 0.00 87 1010.1
20260904044117 69 288 1.0 4.0 0.00 0.00 0.00 87 1010.0
20260904043116 69 342 0.0 4.0 0.00 0.00 0.00 88 1010.0
20260904042116 69 294 0.0 5.0 0.00 0.00 0.00 88 1010.1
20260904041117 69 344 2.0 5.0 0.00 0.00 0.00 88 1010.0
20260904040116 69 341 1.0 4.0 0.00 0.00 0.00 88 1010.0
20260904035117 69 360 2.0 3.0 0.00 0.00 0.00 87 1009.9
20260904034116 69 290 3.0 3.0 0.00 0.00 0.00 87 1009.7
20260904033116 69 340 2.0 4.0 0.00 0.00 0.00 86 1009.5
20260904032116 69 313 1.0 4.0 0.00 0.00 0.00 86 1009.5
20260904031116 70 268 1.0 5.0 0.00 0.00 0.00 85 1009.5
20260904030116 70 343 2.0 5.0 0.00 0.00 0.00 85 1009.5
20260904024115 70 334 1.0 4.0 0.00 0.00 0.00 84 1009.1
20260904023116 70 313 1.0 5.0 0.00 0.00 0.00 84 1009.1
20260904020115 71 268 3.0 7.0 0.00 0.00 0.00 85 1009.3
20260904014115 72 236 3.0 6.0 0.00 0.00 0.00 81 1009.5
20260904013115 73 313 4.0 9.0 0.00 0.00 0.00 80 1009.5
20260904012116 73 223 9.0 9.0 0.00 0.00 0.00 78 1009.6
20260904011116 74 219 3.0 8.0 0.00 0.00 0.00 77 1009.6
20260904010115 74 258 3.0 6.0 0.00 0.00 0.00 76 1009.6
20260904005116 74 288 2.0 10.0 0.00 0.00 0.00 75 1009.7
20260904003115 75 296 1.0 8.0 0.00 0.00 0.00 75 1009.7
20260904001115 76 331 2.0 7.0 0.00 0.00 0.00 74 1009.9
20260904000115 75 300 3.0 10.0 0.00 0.00 0.00 74 1010.0
20260903235115 76 228 4.0 8.0 0.00 0.00 0.00 74 1010.1
20260903234115 76 208 3.0 7.0 0.00 0.00 0.00 74 1010.1
20260903233145 76 234 3.0 9.0 0.00 0.00 0.00 74 1010.1